Year,Month,Day,Hour,Minute,Value (Times are PST for temperature in C)
2019,01,20,00,00,-14.80
2019,01,20,00,01,-14.80
2019,01,20,00,02,-14.80
2019,01,20,00,03,-14.80
2019,01,20,00,04,-14.80
2019,01,20,00,05,-14.80
2019,01,20,00,06,-14.80
2019,01,20,00,07,-14.80
2019,01,20,00,08,-14.80
2019,01,20,00,09,-14.80
2019,01,20,00,10,-14.80
2019,01,20,00,11,-14.80
2019,01,20,00,12,-14.80
2019,01,20,00,13,-14.80
2019,01,20,00,14,-14.80
2019,01,20,00,15,-14.80
2019,01,20,00,16,-14.80
2019,01,20,00,17,-14.80
2019,01,20,00,18,-14.80
2019,01,20,00,19,-14.80
2019,01,20,00,20,-14.80
2019,01,20,00,21,-14.80
2019,01,20,00,22,-14.80
2019,01,20,00,23,-14.80
2019,01,20,00,24,-14.80
2019,01,20,00,25,-14.80
2019,01,20,00,26,-14.80
2019,01,20,00,27,-14.80
2019,01,20,00,28,-14.80
2019,01,20,00,29,-14.80
2019,01,20,00,30,-14.80
2019,01,20,00,31,-14.80
2019,01,20,00,32,-14.80
2019,01,20,00,33,-14.80
2019,01,20,00,34,-14.80
2019,01,20,00,35,-14.80
2019,01,20,00,36,-14.80
2019,01,20,00,37,-14.80
2019,01,20,00,38,-14.80
2019,01,20,00,39,-14.80
2019,01,20,00,40,-14.80
2019,01,20,00,41,-14.80
2019,01,20,00,42,-14.80
2019,01,20,00,43,-14.80
2019,01,20,00,44,-14.80
2019,01,20,00,45,-14.80
2019,01,20,00,46,-14.80
2019,01,20,00,47,-14.80
2019,01,20,00,48,-14.80
2019,01,20,00,49,-14.80
2019,01,20,00,50,-14.80
2019,01,20,00,51,-14.80
2019,01,20,00,52,-14.80
2019,01,20,00,53,-14.80
2019,01,20,00,54,-14.80
2019,01,20,00,55,-14.80
2019,01,20,00,56,-14.80
2019,01,20,00,57,-14.80
2019,01,20,00,58,-14.80
2019,01,20,00,59,-14.80
2019,01,20,01,00,-14.80
2019,01,20,01,01,-14.80
2019,01,20,01,02,-14.80
2019,01,20,01,03,-14.80
2019,01,20,01,04,-14.80
2019,01,20,01,05,-14.80
2019,01,20,01,06,-14.80
2019,01,20,01,07,-14.80
2019,01,20,01,08,-14.80
2019,01,20,01,09,-14.80
2019,01,20,01,10,-14.80
2019,01,20,01,11,-14.80
2019,01,20,01,12,-14.80
2019,01,20,01,13,-14.80
2019,01,20,01,14,-14.80
2019,01,20,01,15,-14.80
2019,01,20,01,16,-14.80
2019,01,20,01,17,-14.80
2019,01,20,01,18,-14.80
2019,01,20,01,19,-14.80
2019,01,20,01,20,-14.80
2019,01,20,01,21,-14.90
2019,01,20,01,22,-14.80
2019,01,20,01,23,-14.90
2019,01,20,01,24,-14.90
2019,01,20,01,25,-14.90
2019,01,20,01,26,-14.90
2019,01,20,01,27,-14.90
2019,01,20,01,28,-14.90
2019,01,20,01,29,-14.90
2019,01,20,01,30,-14.90
2019,01,20,01,31,-14.90
2019,01,20,01,32,-14.90
2019,01,20,01,33,-14.90
2019,01,20,01,34,-14.90
2019,01,20,01,35,-14.90
2019,01,20,01,36,-14.90
2019,01,20,01,37,-14.90
2019,01,20,01,38,-14.90
2019,01,20,01,39,-14.90
2019,01,20,01,40,-15.00
2019,01,20,01,41,-15.00
2019,01,20,01,42,-15.00
2019,01,20,01,43,-15.00
2019,01,20,01,44,-15.00
2019,01,20,01,45,-15.10
2019,01,20,01,46,-15.10
2019,01,20,01,47,-15.10
2019,01,20,01,48,-15.10
2019,01,20,01,49,-15.10
2019,01,20,01,50,-15.10
2019,01,20,01,51,-15.20
2019,01,20,01,52,-15.20
2019,01,20,01,53,-15.20
2019,01,20,01,54,-15.20
2019,01,20,01,55,-15.20
2019,01,20,01,56,-15.20
2019,01,20,01,57,-15.20
2019,01,20,01,58,-15.20
2019,01,20,01,59,-15.30
2019,01,20,02,00,-15.30
2019,01,20,02,01,-15.30
2019,01,20,02,02,-15.30
2019,01,20,02,03,-15.30
2019,01,20,02,04,-15.30
2019,01,20,02,05,-15.30
2019,01,20,02,06,-15.30
2019,01,20,02,07,-15.30
2019,01,20,02,08,-15.30
2019,01,20,02,09,-15.30
2019,01,20,02,10,-15.30
2019,01,20,02,11,-15.30
2019,01,20,02,12,-15.30
2019,01,20,02,13,-15.30
2019,01,20,02,14,-15.30
2019,01,20,02,15,-15.30
2019,01,20,02,16,-15.30
2019,01,20,02,17,-15.30
2019,01,20,02,18,-15.20
2019,01,20,02,19,-15.20
2019,01,20,02,20,-15.20
2019,01,20,02,21,-15.20
2019,01,20,02,22,-15.20
2019,01,20,02,23,-15.20
2019,01,20,02,24,-15.20
2019,01,20,02,25,-15.20
2019,01,20,02,26,-15.20
2019,01,20,02,27,-15.20
2019,01,20,02,28,-15.20
2019,01,20,02,29,-15.20
2019,01,20,02,30,-15.20
2019,01,20,02,31,-15.20
2019,01,20,02,32,-15.20
2019,01,20,02,33,-15.10
2019,01,20,02,34,-15.10
2019,01,20,02,35,-15.10
2019,01,20,02,36,-15.10
2019,01,20,02,37,-15.10
2019,01,20,02,38,-15.10
2019,01,20,02,39,-15.20
2019,01,20,02,40,-15.20
2019,01,20,02,41,-15.20
2019,01,20,02,42,-15.20
2019,01,20,02,43,-15.20
2019,01,20,02,44,-15.20
2019,01,20,02,45,-15.20
2019,01,20,02,46,-15.20
2019,01,20,02,47,-15.20
2019,01,20,02,48,-15.20
2019,01,20,02,49,-15.20
2019,01,20,02,50,-15.20
2019,01,20,02,51,-15.30
2019,01,20,02,52,-15.30
2019,01,20,02,53,-15.30
2019,01,20,02,54,-15.30
2019,01,20,02,55,-15.30
2019,01,20,02,56,-15.30
2019,01,20,02,57,-15.30
2019,01,20,02,58,-15.30
2019,01,20,02,59,-15.30
2019,01,20,03,00,-15.30
2019,01,20,03,01,-15.30
2019,01,20,03,02,-15.20
2019,01,20,03,03,-15.20
2019,01,20,03,04,-15.20
2019,01,20,03,05,-15.20
2019,01,20,03,06,-15.20
2019,01,20,03,07,-15.20
2019,01,20,03,08,-15.20
2019,01,20,03,09,-15.20
2019,01,20,03,10,-15.20
2019,01,20,03,11,-15.20
2019,01,20,03,12,-15.20
2019,01,20,03,13,-15.20
2019,01,20,03,14,-15.20
2019,01,20,03,15,-15.20
2019,01,20,03,16,-15.20
2019,01,20,03,17,-15.20
2019,01,20,03,18,-15.20
2019,01,20,03,19,-15.20
2019,01,20,03,20,-15.20
2019,01,20,03,21,-15.20
2019,01,20,03,22,-15.20
2019,01,20,03,23,-15.20
2019,01,20,03,24,-15.20
2019,01,20,03,25,-15.20
2019,01,20,03,26,-15.20
2019,01,20,03,27,-15.20
2019,01,20,03,28,-15.20
2019,01,20,03,29,-15.20
2019,01,20,03,30,-15.20
2019,01,20,03,31,-15.20
2019,01,20,03,32,-15.20
2019,01,20,03,33,-15.20
2019,01,20,03,34,-15.20
2019,01,20,03,35,-15.20
2019,01,20,03,36,-15.20
2019,01,20,03,37,-15.20
2019,01,20,03,38,-15.20
2019,01,20,03,39,-15.20
2019,01,20,03,40,-15.20
2019,01,20,03,41,-15.20
2019,01,20,03,42,-15.20
2019,01,20,03,43,-15.20
2019,01,20,03,44,-15.20
2019,01,20,03,45,-15.20
2019,01,20,03,46,-15.20
2019,01,20,03,47,-15.20
2019,01,20,03,48,-15.20
2019,01,20,03,49,-15.20
2019,01,20,03,50,-15.20
2019,01,20,03,51,-15.20
2019,01,20,03,52,-15.20
2019,01,20,03,53,-15.20
2019,01,20,03,54,-15.20
2019,01,20,03,55,-15.20
2019,01,20,03,56,-15.20
2019,01,20,03,57,-15.20
2019,01,20,03,58,-15.30
2019,01,20,03,59,-15.30
2019,01,20,04,00,-15.30
2019,01,20,04,01,-15.30
2019,01,20,04,02,-15.30
2019,01,20,04,03,-15.30
2019,01,20,04,04,-15.30
2019,01,20,04,05,-15.30
2019,01,20,04,06,-15.30
2019,01,20,04,07,-15.30
2019,01,20,04,08,-15.30
2019,01,20,04,09,-15.30
2019,01,20,04,10,-15.30
2019,01,20,04,11,-15.30
2019,01,20,04,12,-15.30
2019,01,20,04,13,-15.40
2019,01,20,04,14,-15.40
2019,01,20,04,15,-15.40
2019,01,20,04,16,-15.40
2019,01,20,04,17,-15.40
2019,01,20,04,18,-15.40
2019,01,20,04,19,-15.40
2019,01,20,04,20,-15.50
2019,01,20,04,21,-15.50
2019,01,20,04,22,-15.50
2019,01,20,04,23,-15.50
2019,01,20,04,24,-15.50
2019,01,20,04,25,-15.50
2019,01,20,04,26,-15.50
2019,01,20,04,27,-15.60
2019,01,20,04,28,-15.60
2019,01,20,04,29,-15.60
2019,01,20,04,30,-15.60
2019,01,20,04,31,-15.60
2019,01,20,04,32,-15.60
2019,01,20,04,33,-15.60
2019,01,20,04,34,-15.60
2019,01,20,04,35,-15.60
2019,01,20,04,36,-15.70
2019,01,20,04,37,-15.70
2019,01,20,04,38,-15.70
2019,01,20,04,39,-15.70
2019,01,20,04,40,-15.70
2019,01,20,04,41,-15.70
2019,01,20,04,42,-15.70
2019,01,20,04,43,-15.70
2019,01,20,04,44,-15.70
2019,01,20,04,45,-15.70
2019,01,20,04,46,-15.70
2019,01,20,04,47,-15.70
2019,01,20,04,48,-15.70
2019,01,20,04,49,-15.70
2019,01,20,04,50,-15.70
2019,01,20,04,51,-15.80
2019,01,20,04,52,-15.80
2019,01,20,04,53,-15.80
2019,01,20,04,54,-15.80
2019,01,20,04,55,-15.80
2019,01,20,04,56,-15.80
2019,01,20,04,57,-15.80
2019,01,20,04,58,-15.80
2019,01,20,04,59,-15.90
2019,01,20,05,00,-15.90
2019,01,20,05,01,-15.90
2019,01,20,05,02,-15.90
2019,01,20,05,03,-15.90
2019,01,20,05,04,-15.90
2019,01,20,05,05,-15.90
2019,01,20,05,06,-15.90
2019,01,20,05,07,-15.90
2019,01,20,05,08,-16.00
2019,01,20,05,09,-16.00
2019,01,20,05,10,-16.00
2019,01,20,05,11,-16.00
2019,01,20,05,12,-16.00
2019,01,20,05,13,-16.00
2019,01,20,05,14,-16.00
2019,01,20,05,15,-16.00
2019,01,20,05,16,-16.10
2019,01,20,05,17,-16.10
2019,01,20,05,18,-16.10
2019,01,20,05,19,-16.10
2019,01,20,05,20,-16.10
2019,01,20,05,21,-16.10
2019,01,20,05,22,-16.10
2019,01,20,05,23,-16.10
2019,01,20,05,24,-16.10
2019,01,20,05,25,-16.10
2019,01,20,05,26,-16.20
2019,01,20,05,27,-16.20
2019,01,20,05,28,-16.20
2019,01,20,05,29,-16.20
2019,01,20,05,30,-16.20
2019,01,20,05,31,-16.20
2019,01,20,05,32,-16.20
2019,01,20,05,33,-16.20
2019,01,20,05,34,-16.20
2019,01,20,05,35,-16.20
2019,01,20,05,36,-16.20
2019,01,20,05,37,-16.20
2019,01,20,05,38,-16.20
2019,01,20,05,39,-16.20
2019,01,20,05,40,-16.20
2019,01,20,05,41,-16.20
2019,01,20,05,42,-16.20
2019,01,20,05,43,-16.20
2019,01,20,05,44,-16.30
2019,01,20,05,45,-16.30
2019,01,20,05,46,-16.30
2019,01,20,05,47,-16.30
2019,01,20,05,48,-16.30
2019,01,20,05,49,-16.30
2019,01,20,05,50,-16.20
2019,01,20,05,51,-16.20
2019,01,20,05,52,-16.30
2019,01,20,05,53,-16.30
2019,01,20,05,54,-16.20
2019,01,20,05,55,-16.30
2019,01,20,05,56,-16.30
2019,01,20,05,57,-16.30
2019,01,20,05,58,-16.30
2019,01,20,05,59,-16.30
2019,01,20,06,00,-16.30
2019,01,20,06,01,-16.30
2019,01,20,06,02,-16.30
2019,01,20,06,03,-16.30
2019,01,20,06,04,-16.30
2019,01,20,06,05,-16.30
2019,01,20,06,06,-16.30
2019,01,20,06,07,-16.30
2019,01,20,06,08,-16.30
2019,01,20,06,09,-16.20
2019,01,20,06,10,-16.20
2019,01,20,06,11,-16.20
2019,01,20,06,12,-16.20
2019,01,20,06,13,-16.30
2019,01,20,06,14,-16.30
2019,01,20,06,15,-16.20
2019,01,20,06,16,-16.20
2019,01,20,06,17,-16.20
2019,01,20,06,18,-16.20
2019,01,20,06,19,-16.20
2019,01,20,06,20,-16.20
2019,01,20,06,21,-16.20
2019,01,20,06,22,-16.20
2019,01,20,06,23,-16.20
2019,01,20,06,24,-16.20
2019,01,20,06,25,-16.20
2019,01,20,06,26,-16.20
2019,01,20,06,27,-16.20
2019,01,20,06,28,-16.20
2019,01,20,06,29,-16.20
2019,01,20,06,30,-16.20
2019,01,20,06,31,-16.20
2019,01,20,06,32,-16.20
2019,01,20,06,33,-16.20
2019,01,20,06,34,-16.20
2019,01,20,06,35,-16.20
2019,01,20,06,36,-16.20
2019,01,20,06,37,-16.20
2019,01,20,06,38,-16.20
2019,01,20,06,39,-16.20
2019,01,20,06,40,-16.20
2019,01,20,06,41,-16.20
2019,01,20,06,42,-16.20
2019,01,20,06,43,-16.20
2019,01,20,06,44,-16.20
2019,01,20,06,45,-16.20
2019,01,20,06,46,-16.20
2019,01,20,06,47,-16.20
2019,01,20,06,48,-16.20
2019,01,20,06,49,-16.20
2019,01,20,06,50,-16.10
2019,01,20,06,51,-16.10
2019,01,20,06,52,-16.10
2019,01,20,06,53,-16.10
2019,01,20,06,54,-16.10
2019,01,20,06,55,-16.10
2019,01,20,06,56,-16.10
2019,01,20,06,57,-16.10
2019,01,20,06,58,-16.10
2019,01,20,06,59,-16.10
2019,01,20,07,00,-16.10
2019,01,20,07,01,-16.10
2019,01,20,07,02,-16.10
2019,01,20,07,03,-16.10
2019,01,20,07,04,-16.10
2019,01,20,07,05,-16.10
2019,01,20,07,06,-16.10
2019,01,20,07,07,-16.10
2019,01,20,07,08,-16.10
2019,01,20,07,09,-16.10
2019,01,20,07,10,-16.10
2019,01,20,07,11,-16.10
2019,01,20,07,12,-16.10
2019,01,20,07,13,-16.10
2019,01,20,07,14,-16.10
2019,01,20,07,15,-16.10
2019,01,20,07,16,-16.10
2019,01,20,07,17,-16.10
2019,01,20,07,18,-16.10
2019,01,20,07,19,-16.10
2019,01,20,07,20,-16.10
2019,01,20,07,21,-16.10
2019,01,20,07,22,-16.10
2019,01,20,07,23,-16.10
2019,01,20,07,24,-16.10
2019,01,20,07,25,-16.10
2019,01,20,07,26,-16.10
2019,01,20,07,27,-16.10
2019,01,20,07,28,-16.10
2019,01,20,07,29,-16.10
2019,01,20,07,30,-16.10
2019,01,20,07,31,-16.20
2019,01,20,07,32,-16.10
2019,01,20,07,33,-16.20
2019,01,20,07,34,-16.10
2019,01,20,07,35,-16.10
2019,01,20,07,36,-16.10
2019,01,20,07,37,-16.10
2019,01,20,07,38,-16.10
2019,01,20,07,39,-16.10
2019,01,20,07,40,-16.10
2019,01,20,07,41,-16.10
2019,01,20,07,42,-16.10
2019,01,20,07,43,-16.10
2019,01,20,07,44,-16.10
2019,01,20,07,45,-16.10
2019,01,20,07,46,-16.10
2019,01,20,07,47,-16.10
2019,01,20,07,48,-16.10
2019,01,20,07,49,-16.10
2019,01,20,07,50,-16.10
2019,01,20,07,51,-16.10
2019,01,20,07,52,-16.10
2019,01,20,07,53,-16.10
2019,01,20,07,54,-16.10
2019,01,20,07,55,-16.10
2019,01,20,07,56,-16.10
2019,01,20,07,57,-16.10
2019,01,20,07,58,-16.10
2019,01,20,07,59,-16.10
2019,01,20,08,00,-16.10
2019,01,20,08,01,-16.10
2019,01,20,08,02,-16.10
2019,01,20,08,03,-16.10
2019,01,20,08,04,-16.10
2019,01,20,08,05,-16.10
2019,01,20,08,06,-16.10
2019,01,20,08,07,-16.10
2019,01,20,08,08,-16.10
2019,01,20,08,09,-16.10
2019,01,20,08,10,-16.10
2019,01,20,08,11,-16.10
2019,01,20,08,12,-16.10
2019,01,20,08,13,-16.20
2019,01,20,08,14,-16.20
2019,01,20,08,15,-16.20
2019,01,20,08,16,-16.20
2019,01,20,08,17,-16.20
2019,01,20,08,18,-16.20
2019,01,20,08,19,-16.20
2019,01,20,08,20,-16.20
2019,01,20,08,21,-16.20
2019,01,20,08,22,-16.10
2019,01,20,08,23,-16.10
2019,01,20,08,24,-16.10
2019,01,20,08,25,-16.10
2019,01,20,08,26,-16.10
2019,01,20,08,27,-16.10
2019,01,20,08,28,-16.10
2019,01,20,08,29,-16.10
2019,01,20,08,30,-16.10
2019,01,20,08,31,-16.10
2019,01,20,08,32,-16.10
2019,01,20,08,33,-16.10
2019,01,20,08,34,-16.10
2019,01,20,08,35,-16.10
2019,01,20,08,36,-16.10
2019,01,20,08,37,-16.10
2019,01,20,08,38,-16.10
2019,01,20,08,39,-16.10
2019,01,20,08,40,-16.10
2019,01,20,08,41,-16.10
2019,01,20,08,42,-16.10
2019,01,20,08,43,-16.10
2019,01,20,08,44,-16.10
2019,01,20,08,45,-16.10
2019,01,20,08,46,-16.10
2019,01,20,08,47,-16.10
2019,01,20,08,48,-16.10
2019,01,20,08,49,-16.10
2019,01,20,08,50,-16.10
2019,01,20,08,51,-16.10
2019,01,20,08,52,-16.10
2019,01,20,08,53,-16.10
2019,01,20,08,54,-16.10
2019,01,20,08,55,-16.10
2019,01,20,08,56,-16.10
2019,01,20,08,57,-16.10
2019,01,20,08,58,-16.10
2019,01,20,08,59,-16.10
2019,01,20,09,00,-16.10
2019,01,20,09,01,-16.10
2019,01,20,09,02,-16.10
2019,01,20,09,03,-16.10
2019,01,20,09,04,-16.20
2019,01,20,09,05,-16.20
2019,01,20,09,06,-16.20
2019,01,20,09,07,-16.20
2019,01,20,09,08,-16.20
2019,01,20,09,09,-16.20
2019,01,20,09,10,-16.20
2019,01,20,09,11,-16.20
2019,01,20,09,12,-16.20
2019,01,20,09,13,-16.20
2019,01,20,09,14,-16.20
2019,01,20,09,15,-16.20
2019,01,20,09,16,-16.20
2019,01,20,09,17,-16.20
2019,01,20,09,18,-16.20
2019,01,20,09,19,-16.30
2019,01,20,09,20,-16.30
2019,01,20,09,21,-16.30
2019,01,20,09,22,-16.30
2019,01,20,09,23,-16.30
2019,01,20,09,24,-16.30
2019,01,20,09,25,-16.30
2019,01,20,09,26,-16.30
2019,01,20,09,27,-16.30
2019,01,20,09,28,-16.30
2019,01,20,09,29,-16.30
2019,01,20,09,30,-16.30
2019,01,20,09,31,-16.30
2019,01,20,09,32,-16.30
2019,01,20,09,33,-16.30
2019,01,20,09,34,-16.30
2019,01,20,09,35,-16.30
2019,01,20,09,36,-16.30
2019,01,20,09,37,-16.40
2019,01,20,09,38,-16.40
2019,01,20,09,39,-16.40
2019,01,20,09,40,-16.40
2019,01,20,09,41,-16.40
2019,01,20,09,42,-16.40
2019,01,20,09,43,-16.40
2019,01,20,09,44,-16.40
2019,01,20,09,45,-16.40
2019,01,20,09,46,-16.40
2019,01,20,09,47,-16.40
2019,01,20,09,48,-16.40
2019,01,20,09,49,-16.40
2019,01,20,09,50,-16.40
2019,01,20,09,51,-16.50
2019,01,20,09,52,-16.40
2019,01,20,09,53,-16.40
2019,01,20,09,54,-16.40
2019,01,20,09,55,-16.50
2019,01,20,09,56,-16.40
2019,01,20,09,57,-16.50
2019,01,20,09,58,-16.50
2019,01,20,09,59,-16.50
2019,01,20,10,00,-16.50
2019,01,20,10,01,-16.50
2019,01,20,10,02,-16.50
2019,01,20,10,03,-16.50
2019,01,20,10,04,-16.50
2019,01,20,10,05,-16.50
2019,01,20,10,06,-16.50
2019,01,20,10,07,-16.60
2019,01,20,10,08,-16.60
2019,01,20,10,09,-16.60
2019,01,20,10,10,-16.60
2019,01,20,10,11,-16.60
2019,01,20,10,12,-16.60
2019,01,20,10,13,-16.60
2019,01,20,10,14,-16.60
2019,01,20,10,15,-16.60
2019,01,20,10,16,-16.60
2019,01,20,10,17,-16.60
2019,01,20,10,18,-16.60
2019,01,20,10,19,-16.60
2019,01,20,10,20,-16.60
2019,01,20,10,21,-16.60
2019,01,20,10,22,-16.60
2019,01,20,10,23,-16.60
2019,01,20,10,24,-16.60
2019,01,20,10,25,-16.60
2019,01,20,10,26,-16.60
2019,01,20,10,27,-16.70
2019,01,20,10,28,-16.70
2019,01,20,10,29,-16.70
2019,01,20,10,30,-16.70
2019,01,20,10,31,-16.70
2019,01,20,10,32,-16.70
2019,01,20,10,33,-16.70
2019,01,20,10,34,-16.70
2019,01,20,10,35,-16.70
2019,01,20,10,36,-16.70
2019,01,20,10,37,-16.70
2019,01,20,10,38,-16.70
2019,01,20,10,39,-16.70
2019,01,20,10,40,-16.70
2019,01,20,10,41,-16.70
2019,01,20,10,42,-16.70
2019,01,20,10,43,-16.70
2019,01,20,10,44,-16.70
2019,01,20,10,45,-16.70
2019,01,20,10,46,-16.70
2019,01,20,10,47,-16.70
2019,01,20,10,48,-16.70
2019,01,20,10,49,-16.70
2019,01,20,10,50,-16.70
2019,01,20,10,51,-16.70
2019,01,20,10,52,-16.70
2019,01,20,10,53,-16.70
2019,01,20,10,54,-16.70
2019,01,20,10,55,-16.70
2019,01,20,10,56,-16.70
2019,01,20,10,57,-16.70
2019,01,20,10,58,-16.70
2019,01,20,10,59,-16.70
2019,01,20,11,00,-16.70
2019,01,20,11,01,-16.70
2019,01,20,11,02,-16.70
2019,01,20,11,03,-16.70
2019,01,20,11,04,-16.70
2019,01,20,11,05,-16.70
2019,01,20,11,06,-16.70
2019,01,20,11,07,-16.70
2019,01,20,11,08,-16.70
2019,01,20,11,09,-16.70
2019,01,20,11,10,-16.70
2019,01,20,11,11,-16.70
2019,01,20,11,12,-16.70
2019,01,20,11,13,-16.70
2019,01,20,11,14,-16.70
2019,01,20,11,15,-16.70
2019,01,20,11,16,-16.70
2019,01,20,11,17,-16.70
2019,01,20,11,18,-16.70
2019,01,20,11,19,-16.70
2019,01,20,11,20,-16.70
2019,01,20,11,21,-16.70
2019,01,20,11,22,-16.70
2019,01,20,11,23,-16.70
2019,01,20,11,24,-16.70
2019,01,20,11,25,-16.70
2019,01,20,11,26,-16.70
2019,01,20,11,27,-16.70
2019,01,20,11,28,-16.70
2019,01,20,11,29,-16.70
2019,01,20,11,30,-16.70
2019,01,20,11,31,-16.70
2019,01,20,11,32,-16.70
2019,01,20,11,33,-16.70
2019,01,20,11,34,-16.70
2019,01,20,11,35,-16.70
2019,01,20,11,36,-16.70
2019,01,20,11,37,-16.70
2019,01,20,11,38,-16.70
2019,01,20,11,39,-16.70
2019,01,20,11,40,-16.70
2019,01,20,11,41,-16.70
2019,01,20,11,42,-16.70
2019,01,20,11,43,-16.70
2019,01,20,11,44,-16.70
2019,01,20,11,45,-16.70
2019,01,20,11,46,-16.70
2019,01,20,11,47,-16.70
2019,01,20,11,48,-16.70
2019,01,20,11,49,-16.70
2019,01,20,11,50,-16.70
2019,01,20,11,51,-16.70
2019,01,20,11,52,-16.70
2019,01,20,11,53,-16.70
2019,01,20,11,54,-16.70
2019,01,20,11,55,-16.70
2019,01,20,11,56,-16.70
2019,01,20,11,57,-16.70
2019,01,20,11,58,-16.70
2019,01,20,11,59,-16.70
2019,01,20,12,00,-16.70
2019,01,20,12,01,-16.70
2019,01,20,12,02,-16.70
2019,01,20,12,03,-16.70
2019,01,20,12,04,-16.70
2019,01,20,12,05,-16.70
2019,01,20,12,06,-16.70
2019,01,20,12,07,-16.80
2019,01,20,12,08,-16.80
2019,01,20,12,09,-16.80
2019,01,20,12,10,-16.80
2019,01,20,12,11,-16.80
2019,01,20,12,12,-16.90
2019,01,20,12,13,-16.90
2019,01,20,12,14,-16.90
2019,01,20,12,15,-16.90
2019,01,20,12,16,-16.90
2019,01,20,12,17,-17.00
2019,01,20,12,18,-17.00
2019,01,20,12,19,-17.00
2019,01,20,12,20,-17.00
2019,01,20,12,21,-17.00
2019,01,20,12,22,-17.00
2019,01,20,12,23,-17.00
2019,01,20,12,24,-16.90
2019,01,20,12,25,-16.90
2019,01,20,12,26,-16.90
2019,01,20,12,27,-16.90
2019,01,20,12,28,-16.90
2019,01,20,12,29,-16.90
2019,01,20,12,30,-16.90
2019,01,20,12,31,-16.90
2019,01,20,12,32,-16.90
2019,01,20,12,33,-16.90
2019,01,20,12,34,-16.80
2019,01,20,12,35,-16.80
2019,01,20,12,36,-16.80
2019,01,20,12,37,-16.80
2019,01,20,12,38,-16.80
2019,01,20,12,39,-16.80
2019,01,20,12,40,-16.80
2019,01,20,12,41,-16.80
2019,01,20,12,42,-16.80
2019,01,20,12,43,-16.80
2019,01,20,12,44,-16.80
2019,01,20,12,45,-16.70
2019,01,20,12,46,-16.70
2019,01,20,12,47,-16.70
2019,01,20,12,48,-16.70
2019,01,20,12,49,-16.70
2019,01,20,12,50,-16.70
2019,01,20,12,51,-16.70
2019,01,20,12,52,-16.70
2019,01,20,12,53,-16.70
2019,01,20,12,54,-16.70
2019,01,20,12,55,-16.60
2019,01,20,12,56,-16.60
2019,01,20,12,57,-16.60
2019,01,20,12,58,-16.60
2019,01,20,12,59,-16.60
2019,01,20,13,00,-16.60
2019,01,20,13,01,-16.50
2019,01,20,13,02,-16.50
2019,01,20,13,03,-16.50
2019,01,20,13,04,-16.50
2019,01,20,13,05,-16.50
2019,01,20,13,06,-16.40
2019,01,20,13,07,-16.40
2019,01,20,13,08,-16.40
2019,01,20,13,09,-16.40
2019,01,20,13,10,-16.40
2019,01,20,13,11,-16.40
2019,01,20,13,12,-16.40
2019,01,20,13,13,-16.40
2019,01,20,13,14,-16.40
2019,01,20,13,15,-16.40
2019,01,20,13,16,-16.40
2019,01,20,13,17,-16.30
2019,01,20,13,18,-16.30
2019,01,20,13,19,-16.30
2019,01,20,13,20,-16.40
2019,01,20,13,21,-16.40
2019,01,20,13,22,-16.40
2019,01,20,13,23,-16.40
2019,01,20,13,24,-16.30
2019,01,20,13,25,-16.40
2019,01,20,13,26,-16.40
2019,01,20,13,27,-16.30
2019,01,20,13,28,-16.30
2019,01,20,13,29,-16.30
2019,01,20,13,30,-16.30
2019,01,20,13,31,-16.30
2019,01,20,13,32,-16.30
2019,01,20,13,33,-16.30
2019,01,20,13,34,-16.30
2019,01,20,13,35,-16.30
2019,01,20,13,36,-16.30
2019,01,20,13,37,-16.30
2019,01,20,13,38,-16.30
2019,01,20,13,39,-16.30
2019,01,20,13,40,-16.30
2019,01,20,13,41,-16.30
2019,01,20,13,42,-16.30
2019,01,20,13,43,-16.30
2019,01,20,13,44,-16.30
2019,01,20,13,45,-16.30
2019,01,20,13,46,-16.30
2019,01,20,13,47,-16.30
2019,01,20,13,48,-16.30
2019,01,20,13,49,-16.20
2019,01,20,13,50,-16.20
2019,01,20,13,51,-16.20
2019,01,20,13,52,-16.20
2019,01,20,13,53,-16.20
2019,01,20,13,54,-16.20
2019,01,20,13,55,-16.20
2019,01,20,13,56,-16.20
2019,01,20,13,57,-16.10
2019,01,20,13,58,-16.10
2019,01,20,13,59,-16.10
2019,01,20,14,00,-16.10
2019,01,20,14,01,-16.10
2019,01,20,14,02,-16.10
2019,01,20,14,03,-16.10
2019,01,20,14,04,-16.10
2019,01,20,14,05,-16.10
2019,01,20,14,06,-16.10
2019,01,20,14,07,-16.10
2019,01,20,14,08,-16.10
2019,01,20,14,09,-16.10
2019,01,20,14,10,-16.10
2019,01,20,14,11,-16.10
2019,01,20,14,12,-16.10
2019,01,20,14,13,-16.10
2019,01,20,14,14,-16.10
2019,01,20,14,15,-16.10
2019,01,20,14,16,-16.10
2019,01,20,14,17,-16.10
2019,01,20,14,18,-16.10
2019,01,20,14,19,-16.10
2019,01,20,14,20,-16.10
2019,01,20,14,21,-16.10
2019,01,20,14,22,-16.10
2019,01,20,14,23,-16.10
2019,01,20,14,24,-16.10
2019,01,20,14,25,-16.10
2019,01,20,14,26,-16.10
2019,01,20,14,27,-16.10
2019,01,20,14,28,-16.10
2019,01,20,14,29,-16.10
2019,01,20,14,30,-16.10
2019,01,20,14,31,-16.10
2019,01,20,14,32,-16.10
2019,01,20,14,33,-16.10
2019,01,20,14,34,-16.10
2019,01,20,14,35,-16.10
2019,01,20,14,36,-16.10
2019,01,20,14,37,-16.10
2019,01,20,14,38,-16.10
2019,01,20,14,39,-16.10
2019,01,20,14,40,-16.10
2019,01,20,14,41,-16.10
2019,01,20,14,42,-16.10
2019,01,20,14,43,-16.10
2019,01,20,14,44,-16.10
2019,01,20,14,45,-16.10
2019,01,20,14,46,-16.00
2019,01,20,14,47,-16.00
2019,01,20,14,48,-16.00
2019,01,20,14,49,-16.00
2019,01,20,14,50,-16.00
2019,01,20,14,51,-16.00
2019,01,20,14,52,-16.00
2019,01,20,14,53,-16.00
2019,01,20,14,54,-16.00
2019,01,20,14,55,-15.90
2019,01,20,14,56,-15.90
2019,01,20,14,57,-15.90
2019,01,20,14,58,-15.90
2019,01,20,14,59,-15.90
2019,01,20,15,00,-15.90
2019,01,20,15,01,-15.90
2019,01,20,15,02,-15.90
2019,01,20,15,03,-15.90
2019,01,20,15,04,-15.90
2019,01,20,15,05,-15.90
2019,01,20,15,06,-15.90
2019,01,20,15,07,-15.80
2019,01,20,15,08,-15.80
2019,01,20,15,09,-15.80
2019,01,20,15,10,-15.80
2019,01,20,15,11,-15.80
2019,01,20,15,12,-15.80
2019,01,20,15,13,-15.80
2019,01,20,15,14,-15.80
2019,01,20,15,15,-15.80
2019,01,20,15,16,-15.80
2019,01,20,15,17,-15.80
2019,01,20,15,18,-15.80
2019,01,20,15,19,-15.80
2019,01,20,15,20,-15.80
2019,01,20,15,21,-15.80
2019,01,20,15,22,-15.80
2019,01,20,15,23,-15.80
2019,01,20,15,24,-15.80
2019,01,20,15,25,-15.80
2019,01,20,15,26,-15.80
2019,01,20,15,27,-15.80
2019,01,20,15,28,-15.80
2019,01,20,15,29,-15.80
2019,01,20,15,30,-15.80
2019,01,20,15,31,-15.80
2019,01,20,15,32,-15.80
2019,01,20,15,33,-15.80
2019,01,20,15,34,-15.80
2019,01,20,15,35,-15.80
2019,01,20,15,36,-15.80
2019,01,20,15,37,-15.80
2019,01,20,15,38,-15.80
2019,01,20,15,39,-15.80
2019,01,20,15,40,-15.80
2019,01,20,15,41,-15.80
2019,01,20,15,42,-15.80
2019,01,20,15,43,-15.80
2019,01,20,15,44,-15.80
2019,01,20,15,45,-15.80
2019,01,20,15,46,-15.80
2019,01,20,15,47,-15.80
2019,01,20,15,48,-15.80
2019,01,20,15,49,-15.80
2019,01,20,15,50,-15.80
2019,01,20,15,51,-15.80
2019,01,20,15,52,-15.80
2019,01,20,15,53,-15.80
2019,01,20,15,54,-15.80
2019,01,20,15,55,-15.80
2019,01,20,15,56,-15.80
2019,01,20,15,57,-15.80
2019,01,20,15,58,-15.80
2019,01,20,15,59,-15.80
2019,01,20,16,00,-15.80
2019,01,20,16,01,-15.80
2019,01,20,16,02,-15.80
2019,01,20,16,03,-15.80
2019,01,20,16,04,-15.80
2019,01,20,16,05,-15.80
2019,01,20,16,06,-15.80
2019,01,20,16,07,-15.80
2019,01,20,16,08,-15.80
2019,01,20,16,09,-15.80
2019,01,20,16,10,-15.80
2019,01,20,16,11,-15.80
2019,01,20,16,12,-15.80
2019,01,20,16,13,-15.80
2019,01,20,16,14,-15.80
2019,01,20,16,15,-15.80
2019,01,20,16,16,-15.80
2019,01,20,16,17,-15.80
2019,01,20,16,18,-15.80
2019,01,20,16,19,-15.80
2019,01,20,16,20,-15.80
2019,01,20,16,21,-15.80
2019,01,20,16,22,-15.80
2019,01,20,16,23,-15.80
2019,01,20,16,24,-15.80
2019,01,20,16,25,-15.80
2019,01,20,16,26,-15.80
2019,01,20,16,27,-15.80
2019,01,20,16,28,-15.80
2019,01,20,16,29,-15.80
2019,01,20,16,30,-15.80
2019,01,20,16,31,-15.80
2019,01,20,16,32,-15.90
2019,01,20,16,33,-15.90
2019,01,20,16,34,-15.90
2019,01,20,16,35,-15.90
2019,01,20,16,36,-15.90